• In Österreich
  • Länderverzeichnis
  • Für 7 Tage
  • Wassertemperatur
  • Satellitenkarten
  • Wetterkarte
  • News
  • Widgets
  • user-avatar
    Anmelden

    Stündliche Wetter Canillo

    Heute, 18 Oktober, Mittwoch

    Zeit Temperatur Niederschläge Wind Luftdruck Luftfeuchtigkeit
    00:00 +6°C° 0 mm 2 m/S 619 mmHg 83%
    01:00 +6°C° 0 mm 2 m/S 619 mmHg 82%
    02:00 +6°C° 0 mm 2 m/S 618 mmHg 81%
    03:00 +6°C° 0 mm 2 m/S 618 mmHg 80%
    04:00 +6°C° 0 mm 2 m/S 618 mmHg 81%
    05:00 +6°C° 0 mm 2 m/S 618 mmHg 81%
    06:00 +6°C° 0 mm 2 m/S 617 mmHg 82%
    07:00 +7°C° 0 mm 2 m/S 618 mmHg 76%
    08:00 +9°C° 0 mm 2 m/S 618 mmHg 71%
    09:00 +12°C° 0 mm 2 m/S 619 mmHg 66%
    10:00 +12°C° 0,1 mm 3 m/S 619 mmHg 62%
    11:00 +13°C° 0,1 mm 3 m/S 619 mmHg 58%
    12:00 +14°C° 0,1 mm 3 m/S 619 mmHg 54%
    13:00 +13°C° 0,3 mm 3 m/S 618 mmHg 57%
    14:00 +13°C° 0,3 mm 3 m/S 618 mmHg 59%
    15:00 +12°C° 0,3 mm 3 m/S 617 mmHg 62%
    16:00 +11°C° 1,5 mm 3 m/S 616 mmHg 69%
    17:00 +10°C° 1,5 mm 3 m/S 616 mmHg 76%
    18:00 +9°C° 1,5 mm 3 m/S 615 mmHg 83%
    19:00 +9°C° 1,8 mm 3 m/S 615 mmHg 85%
    20:00 +8°C° 1,8 mm 3 m/S 615 mmHg 86%
    21:00 +8°C° 1,8 mm 3 m/S 615 mmHg 88%
    22:00 +7°C° 1,6 mm 3 m/S 615 mmHg 90%
    23:00 +7°C° 1,6 mm 2 m/S 615 mmHg 91%

    Morgen, 19 Oktober, Donnerstag

    Zeit Temperatur Niederschläge Wind Luftdruck Luftfeuchtigkeit
    00:00 +7°C° 1,6 mm 2 m/S 615 mmHg 93%
    01:00 +7°C° 1,7 mm 2 m/S 615 mmHg 94%
    02:00 +8°C° 1,7 mm 1 m/S 614 mmHg 95%
    03:00 +8°C° 1,7 mm 1 m/S 614 mmHg 96%
    04:00 +7°C° 1,3 mm 1 m/S 614 mmHg 96%
    05:00 +7°C° 1,3 mm 1 m/S 614 mmHg 96%
    06:00 +7°C° 1,3 mm 1 m/S 614 mmHg 96%
    07:00 +7°C° 1,2 mm 1 m/S 614 mmHg 95%
    08:00 +7°C° 1,2 mm 1 m/S 615 mmHg 94%
    09:00 +7°C° 1,2 mm 1 m/S 615 mmHg 92%
    10:00 +7°C° 2,2 mm 1 m/S 615 mmHg 92%
    11:00 +7°C° 2,2 mm 1 m/S 615 mmHg 93%
    12:00 +7°C° 2,2 mm 1 m/S 615 mmHg 93%
    13:00 +7°C° 1,2 mm 1 m/S 614 mmHg 91%
    14:00 +7°C° 1,2 mm 1 m/S 614 mmHg 89%
    15:00 +8°C° 1,2 mm 1 m/S 614 mmHg 88%
    16:00 +7°C° 0 mm 1 m/S 614 mmHg 89%
    17:00 +6°C° 0 mm 1 m/S 614 mmHg 91%
    18:00 +5°C° 0 mm 1 m/S 614 mmHg 93%
    19:00 +5°C° 0 mm 1 m/S 615 mmHg 92%
    20:00 +5°C° 0 mm 1 m/S 615 mmHg 91%
    21:00 +5°C° 0 mm 1 m/S 615 mmHg 90%
    22:00 +5°C° 0 mm 1 m/S 615 mmHg 89%
    23:00 +5°C° 0 mm 1 m/S 615 mmHg 88%

    übermorgen, 20 Oktober, Freitag

    Zeit Temperatur Niederschläge Wind Luftdruck Luftfeuchtigkeit
    00:00 +5°C° 0 mm 1 m/S 615 mmHg 87%
    01:00 +5°C° 0 mm 1 m/S 615 mmHg 86%
    02:00 +4°C° 0 mm 2 m/S 615 mmHg 85%
    03:00 +3°C° 0 mm 2 m/S 616 mmHg 85%
    04:00 +3°C° 0 mm 2 m/S 616 mmHg 84%
    05:00 +3°C° 0 mm 2 m/S 616 mmHg 82%
    06:00 +3°C° 0 mm 2 m/S 617 mmHg 81%
    07:00 +6°C° 0 mm 1 m/S 618 mmHg 74%
    08:00 +8°C° 0 mm 1 m/S 619 mmHg 67%
    09:00 +10°C° 0 mm 1 m/S 620 mmHg 60%
    10:00 +11°C° 0 mm 1 m/S 621 mmHg 55%
    11:00 +13°C° 0 mm 1 m/S 621 mmHg 51%
    12:00 +14°C° 0 mm 1 m/S 622 mmHg 47%
    13:00 +14°C° 0 mm 1 m/S 622 mmHg 49%
    14:00 +14°C° 0 mm 2 m/S 621 mmHg 52%
    15:00 +13°C° 0 mm 2 m/S 621 mmHg 55%
    16:00 +10°C° 0 mm 2 m/S 621 mmHg 65%
    17:00 +9°C° 0 mm 1 m/S 620 mmHg 75%
    18:00 +7°C° 0 mm 1 m/S 619 mmHg 84%
    19:00 +7°C° 0 mm 1 m/S 620 mmHg 85%
    20:00 +7°C° 0 mm 1 m/S 620 mmHg 85%
    21:00 +6°C° 0 mm 1 m/S 620 mmHg 85%
    22:00 +6°C° 0 mm 1 m/S 620 mmHg 83%
    23:00 +6°C° 0 mm 1 m/S 620 mmHg 81%

    21 Oktober, Samstag

    Zeit Temperatur Niederschläge Wind Luftdruck Luftfeuchtigkeit
    00:00 +6°C° 0 mm 1 m/S 620 mmHg 80%
    01:00 +6°C° 0 mm 1 m/S 620 mmHg 77%
    02:00 +6°C° 0 mm 1 m/S 619 mmHg 74%
    03:00 +6°C° 0 mm 1 m/S 619 mmHg 71%
    04:00 +6°C° 0 mm 1 m/S 619 mmHg 70%
    05:00 +6°C° 0 mm 1 m/S 620 mmHg 68%
    06:00 +6°C° 0 mm 1 m/S 620 mmHg 66%
    07:00 +8°C° 0 mm 1 m/S 621 mmHg 63%
    08:00 +10°C° 0 mm 1 m/S 622 mmHg 61%
    09:00 +11°C° 0 mm 1 m/S 623 mmHg 58%
    10:00 +12°C° 0 mm 1 m/S 624 mmHg 57%
    11:00 +13°C° 0 mm 2 m/S 624 mmHg 56%
    12:00 +14°C° 0 mm 2 m/S 624 mmHg 56%
    13:00 +13°C° 0,1 mm 2 m/S 624 mmHg 61%
    14:00 +12°C° 0,1 mm 2 m/S 623 mmHg 66%
    15:00 +10°C° 0,1 mm 2 m/S 623 mmHg 71%
    16:00 +10°C° 0,1 mm 1 m/S 623 mmHg 78%
    17:00 +9°C° 0,1 mm 1 m/S 622 mmHg 85%
    18:00 +7°C° 0,1 mm 1 m/S 622 mmHg 92%
    19:00 +7°C° 0,2 mm 1 m/S 622 mmHg 92%
    20:00 +7°C° 0,2 mm 1 m/S 623 mmHg 93%
    21:00 +7°C° 0,2 mm 1 m/S 623 mmHg 94%
    22:00 +6°C° 0,1 mm 1 m/S 623 mmHg 95%
    23:00 +6°C° 0,1 mm 1 m/S 623 mmHg 95%

    22 Oktober, Sonntag

    Zeit Temperatur Niederschläge Wind Luftdruck Luftfeuchtigkeit
    00:00 +6°C° 0,1 mm 1 m/S 622 mmHg 95%
    01:00 +5°C° 0 mm 1 m/S 622 mmHg 95%
    02:00 +5°C° 0 mm 1 m/S 622 mmHg 94%
    03:00 +4°C° 0 mm 2 m/S 622 mmHg 94%
    04:00 +3°C° 0 mm 2 m/S 622 mmHg 93%
    05:00 +2°C° 0 mm 2 m/S 622 mmHg 93%
    06:00 +2°C° 0 mm 2 m/S 621 mmHg 92%
    07:00 +3°C° 0 mm 2 m/S 622 mmHg 85%
    08:00 +4°C° 0 mm 2 m/S 623 mmHg 77%
    09:00 +4°C° 0 mm 3 m/S 624 mmHg 70%
    10:00 +5°C° 0 mm 3 m/S 624 mmHg 64%
    11:00 +8°C° 0 mm 3 m/S 624 mmHg 57%
    12:00 +9°C° 0 mm 3 m/S 624 mmHg 51%
    13:00 +8°C° 0 mm 3 m/S 624 mmHg 51%
    14:00 +8°C° 0 mm 3 m/S 624 mmHg 51%
    15:00 +8°C° 0 mm 3 m/S 623 mmHg 52%
    16:00 +5°C° 0 mm 3 m/S 623 mmHg 60%
    17:00 +5°C° 0 mm 2 m/S 622 mmHg 68%
    18:00 +3°C° 0 mm 2 m/S 621 mmHg 76%
    19:00 +2°C° 0 mm 2 m/S 622 mmHg 75%
    20:00 +2°C° 0 mm 2 m/S 622 mmHg 73%
    21:00 +2°C° 0 mm 2 m/S 622 mmHg 71%
    22:00 +1°C° 0 mm 2 m/S 621 mmHg 71%
    23:00 +1°C° 0 mm 2 m/S 621 mmHg 71%

    23 Oktober, Montag

    Zeit Temperatur Niederschläge Wind Luftdruck Luftfeuchtigkeit
    00:00 +1°C° 0 mm 2 m/S 621 mmHg 71%
    01:00 +1°C° 0 mm 2 m/S 621 mmHg 72%
    02:00 +1°C° 0 mm 2 m/S 621 mmHg 72%
    03:00 +1°C° 0 mm 2 m/S 621 mmHg 72%
    04:00 +1°C° 0 mm 2 m/S 621 mmHg 71%
    05:00 -1°C° 0 mm 2 m/S 620 mmHg 70%
    06:00 -1°C° 0 mm 2 m/S 620 mmHg 69%
    07:00 +3°C° 0 mm 2 m/S 621 mmHg 61%
    08:00 +6°C° 0 mm 1 m/S 622 mmHg 54%
    09:00 +8°C° 0 mm 1 m/S 623 mmHg 46%
    10:00 +10°C° 0 mm 1 m/S 624 mmHg 43%
    11:00 +11°C° 0 mm 1 m/S 624 mmHg 41%
    12:00 +12°C° 0 mm 2 m/S 624 mmHg 38%
    13:00 +12°C° 0 mm 1 m/S 624 mmHg 40%
    14:00 +12°C° 0 mm 1 m/S 623 mmHg 43%
    15:00 +12°C° 0 mm 1 m/S 623 mmHg 45%
    16:00 +9°C° 0 mm 1 m/S 622 mmHg 53%
    17:00 +7°C° 0 mm 1 m/S 621 mmHg 61%
    18:00 +5°C° 0 mm 1 m/S 620 mmHg 70%
    19:00 +5°C° 0 mm 1 m/S 620 mmHg 66%
    20:00 +5°C° 0 mm 1 m/S 620 mmHg 62%
    21:00 +5°C° 0 mm 1 m/S 620 mmHg 58%
    22:00 +5°C° 0 mm 1 m/S 620 mmHg 54%
    23:00 +5°C° 0 mm 1 m/S 620 mmHg 51%
    Mehr zeigen